Powrót do katalogu

FENGYUN 1C DEB

LostPO
NORAD 41000·DEBRIS·🇨🇳 China

Wystrzelony May 10, 1999 z Taiyuan Satellite Launch Center

Loading…

Następne Przeloty (najbliższe 24 godziny)

TLE

NieaktualneSource: Space-Track

Epoka: Sep 27, 2024, 19:40 UTC

1 41000U 99025EXE 24271.81974190  .00009075  00000-0  66048-2 0  9992
2 41000  97.5276 284.7712 0360446  89.5254 274.7183 13.69555352782823

Śledź FENGYUN 1C DEB w czasie rzeczywistym z AllMySat

Download on the App Store